Regional Weather Roundup
Issued by NWS

Home | Current Version | Previous Version | Text Only | Print | Product List | Glossary Off
Versions: 1 2 3 4 5 6 7 8 9 10 11 12 13 14 15 16 17 18 19 20 21 22 23 24 25 26 27 28 29 30 31 32 33 34 35 36 37 38 39 40 41 42 43 44 45 46 47 48 49 50

000
ASUS43 KFSD 191302
RWRSD

WEATHER ROUNDUP FOR SOUTH DAKOTA
NATIONAL WEATHER SERVICE SIOUX FALLS SD
700 AM CST MON FEB 19 2018

NOTE: "FAIR" INDICATES FEW OR NO CLOUDS BELOW 12,000 FEET WITH NO
SIGNIFICANT WEATHER AND/OR OBSTRUCTIONS TO VISIBILITY.


SDZ001>005-009-010-012>017-191400-
NORTHWEST AND NORTH CENTRAL SOUTH DAKOTA

CITY           SKY/WX    TMP DP  RH WIND       PRES   REMARKS
BUFFALO          N/A      2  -5  72 NE10      29.96R WCI -14
FAITH            N/A      0  -2  91 N15       30.01F WCI -19
MOBRIDGE       CLOUDY     7   1  76 N12       30.05F WCI  -8
$$

SDZ012>016-024>037-041>051-057-063-072>074-191400-
SOUTHWEST AND SOUTH CENTRAL SOUTH DAKOTA

CITY           SKY/WX    TMP DP  RH WIND       PRES   REMARKS
RAPID CTY ARPT LGT SNOW   1  -3  83 N13       29.97R FOG     WCI -17
PIERRE         LGT SNOW   7   3  84 N17       30.06R FOG     WCI -12
CUSTER         CLOUDY    -2  -8  76 NE3       29.69R
ELLSWORTH AFB  CLOUDY     2  -1  87 N14       29.96R BLWGSNOWWCI -17
PHILIP         FLURRIES   5   2  87 N12       30.03F WCI -11
PINE RIDGE     LGT SNOW   4  -1  80 NE9       29.90F WCI -10
SPEARFISH        N/A     -2  -8  78 S3        29.93R
WINNER         LGT SNOW  10   4  76 N18       29.99F WCI  -8
$$

SDZ004>011-016>023-039-040-191400-
NORTHEAST SOUTH DAKOTA

CITY           SKY/WX    TMP DP  RH WIND       PRES   REMARKS
ABERDEEN       LGT SNOW   8   3  80 N21G26    30.09S WCI -12
WATERTOWN      LGT SNOW   8   4  83 N26G33    29.94S FOG     WCI -14
BROOKINGS      FLURRIES  10   6  84 N20G30    29.88F WCI  -9
SISSETON         N/A      8   4  83 N20       30.07R WCI -11
$$

SDZ017-020-022-023-036>040-048>070-191400-
SOUTHEAST SOUTH DAKOTA

CITY           SKY/WX    TMP DP  RH WIND       PRES   REMARKS
SIOUX FALLS    FRZ DRZL  15  11  83 N21G26    29.85S WCI  -2
HURON          CLOUDY     9   4  80 N22G31    30.00F WCI -11
CHAMBERLAIN    CLOUDY    11   6  81 NW18G28   30.00R WCI  -7
MITCHELL       CLOUDY    12   7  80 N28G37    29.95F WCI  -9
YANKTON        FLURRIES  17  13  84 N20G25    29.87R WCI   1
$$

ABBREVIATIONS USED IN REMARKS
   TC - TEMPERATURE IN CELSIUS
  WCI - WIND CHILL INDEX
   HX - HEAT INDEX
  VSB - VISIBILITY





USA.gov is the U.S. government's official web portal to all federal, state and local government web resources and services.